[[[{"header":{"parameterUnit":"kt","parameterCategory":2,"dx":1,"dy":1,"la1":30.253999710083008,"la2":30.299108505249023,"lo1":-89.0895004272461,"lo2":-89.04439544677734,"nx":28,"ny":28,"refTime":"2022-10-10T21:00:00:Z","depth":0,"parameterNumber":1,"parameterNumberName":"U-component_of_WINDS"},"data":[-3.273,-3.2707,-3.2688,-3.2653,-3.263,-3.2603,-3.2587,-3.2564,-3.2541,-3.2506,-3.2483,-3.246,-3.2428,-3.2395,-3.2368,-3.2358,-3.2349,-3.2357,-3.2344,-3.2328,-3.2324,-3.2321,-3.2326,-3.2355,-3.2355,-3.2364,-3.2364,-3.2364,-3.2727,-3.2705,-3.268,-3.2642,-3.2621,-3.2604,-3.2572,-3.2555,-3.2531,-3.2501,-3.2476,-3.2443,-3.2413,-3.2377,-3.2346,-3.2335,-3.2323,-3.2328,-3.2328,-3.2324,-3.2306,-3.2311,-3.2337,-3.2337,-3.2337,-3.2337,-3.2337,-3.2337,-3.2716,-3.2703,-3.2668,-3.264,-3.2616,-3.2591,-3.2574,-3.2546,-3.252,-3.2484,-3.2464,-3.2435,-3.2401,-3.235,-3.2328,-3.2305,-3.2296,-3.2293,-3.2293,-3.2293,-3.2297,-3.2292,-3.2298,-3.2298,-3.2298,-3.2297,-3.2297,0,-3.2702,-3.2687,-3.266,-3.2629,-3.2607,-3.2579,-3.2551,-3.2539,-3.2497,-3.2477,-3.2447,-3.2425,-3.2383,-3.2352,-3.2316,-3.2292,-3.2269,-3.2263,-3.2262,-3.2272,-3.2288,-3.2281,-3.2255,-3.2263,-3.2262,-3.2262,-3.2262,-3.2262,-3.2691,-3.2676,-3.2628,-3.2613,-3.2591,-3.2565,-3.2546,-3.2508,-3.2489,-3.2447,-3.2436,-3.2404,-3.2376,-3.2329,-3.2293,-3.2261,-3.2249,-3.2255,-3.2244,-3.2256,-3.2251,-3.2253,-3.2252,-3.2258,-3.2258,-3.2259,-3.2259,0,-3.2687,-3.2653,-3.2622,-3.2575,-3.2562,-3.2548,-3.2508,-3.2491,-3.2464,-3.2437,-3.2428,-3.2385,-3.2354,-3.2317,-3.2273,-3.2255,-3.2233,-3.2221,-3.2246,-3.2242,-3.2245,-3.2246,-3.2256,-3.2256,-3.2224,-3.2225,-3.2225,0,-3.2664,-3.2644,-3.2594,-3.2577,-3.2555,-3.2517,-3.2496,-3.247,-3.2437,-3.2416,-3.2383,-3.2364,-3.2318,-3.2293,-3.2265,-3.224,-3.2231,-3.2216,-3.2208,-3.2219,-3.2221,-3.2207,-3.2206,-3.219,-3.219,-3.219,-3.219,0,-3.2662,-3.261,-3.2583,-3.2565,-3.2511,-3.2499,-3.2476,-3.2438,-3.2417,-3.2385,-3.2372,-3.2336,-3.2317,-3.229,-3.2255,-3.2249,-3.2222,-3.2207,-3.2207,-3.2208,-3.2202,-3.2203,-3.2222,-3.219,-3.219,-3.219,-3.219,0,-3.2636,-3.2605,-3.257,-3.2524,-3.2512,-3.2493,-3.2456,-3.2431,-3.2393,-3.2374,-3.2348,-3.232,-3.2293,-3.2281,-3.2245,-3.2247,-3.2231,-3.2213,-3.2212,-3.2207,-3.2194,-3.2211,-3.2232,-3.2234,-3.2204,-3.2204,-3.2204,0,-3.2645,-3.2599,-3.2565,-3.2532,-3.2505,-3.2471,-3.2449,-3.2416,-3.2388,-3.2362,-3.2331,-3.23,-3.2282,-3.2267,-3.2254,-3.2221,-3.2217,-3.222,-3.2183,-3.2182,-3.2196,-3.2215,-3.2228,-3.2232,-3.2205,-3.2205,-3.2205,0,-3.2645,-3.2578,-3.2574,-3.2552,-3.25,-3.2477,-3.2452,-3.2412,-3.2397,-3.2361,-3.2339,-3.2293,-3.2279,-3.2253,-3.2225,-3.2214,-3.2218,-3.2199,-3.2197,-3.2205,-3.2201,-3.2214,-3.2215,-3.2203,-3.2203,-3.2203,-3.2205,0,-3.2619,-3.2589,-3.2577,-3.2527,-3.2503,-3.2478,-3.2436,-3.2416,-3.2393,-3.2364,-3.233,-3.2288,-3.2246,-3.2235,-3.2211,-3.2196,-3.2192,-3.2176,-3.216,-3.2172,-3.2172,-3.2172,-3.2164,-3.2164,-3.2163,-3.2163,0,0,-3.2635,-3.2592,-3.2553,-3.2526,-3.2503,-3.2465,-3.2443,-3.2416,-3.236,-3.2345,-3.2337,-3.2266,-3.2232,-3.2194,-3.2195,-3.2177,-3.217,-3.2166,-3.2167,-3.2167,-3.2168,-3.2169,-3.2169,-3.2161,-3.2161,-3.2161,-3.2161,0,-3.2616,-3.2584,-3.2562,-3.2532,-3.2486,-3.2455,-3.245,-3.2397,-3.2376,-3.2341,-3.2309,-3.2283,-3.2225,-3.2194,-3.2171,-3.217,-3.2147,-3.216,-3.2175,-3.2162,-3.2163,-3.2165,-3.2166,-3.2167,-3.2159,-3.2159,-3.2159,0,-3.261,-3.2572,-3.2556,-3.25,-3.2468,-3.244,-3.2415,-3.2385,-3.2363,-3.232,-3.2285,-3.2256,-3.221,-3.2179,-3.2163,-3.2155,-3.2129,-3.2127,-3.213,-3.2127,-3.2112,-3.2114,-3.2115,-3.2094,-3.2094,-3.2094,0,0,-3.26,-3.2571,-3.2515,-3.2492,-3.2475,-3.2428,-3.2407,-3.2381,-3.2341,-3.2325,-3.2286,-3.2248,-3.2214,-3.2192,-3.2158,-3.213,-3.2117,-3.2121,-3.2124,-3.2127,-3.2126,-3.2111,-3.2113,-3.2094,-3.2094,-3.2094,0,0,-3.2593,-3.2529,-3.2512,-3.2479,-3.2443,-3.2386,-3.2373,-3.2351,-3.2315,-3.2313,-3.2265,-3.2253,-3.2223,-3.2194,-3.2198,-3.2152,-3.2137,-3.2135,-3.2171,-3.2174,-3.2177,-3.2185,-3.2164,0,0,0,0,0,-3.2551,-3.2537,-3.2523,-3.2511,-3.2437,-3.2394,-3.2385,-3.2346,-3.2338,-3.2329,-3.2293,-3.2268,-3.2187,-3.2189,-3.2177,-3.2173,-3.2092,-3.2093,-3.2093,-3.2132,-3.2136,-3.2139,0,0,0,0,0,0,-3.2546,-3.2531,-3.2523,-3.2466,-3.2449,-3.2394,-3.2372,-3.2361,-3.2337,-3.2334,-3.2276,-3.2266,-3.2232,-3.2192,-3.2182,-3.2179,-3.2167,-3.2093,-3.2093,-3.2093,-3.2134,-3.2137,-3.2139,0,0,0,0,0,-3.2542,-3.253,-3.2422,-3.2466,-3.2451,-3.2396,-3.2372,-3.2363,-3.2344,-3.2287,-3.2277,-3.2317,-3.2233,-3.2221,-3.2186,-3.2185,-3.2174,-3.217,-3.2093,-3.2093,-3.2093,-3.2135,0,0,0,0,0,0,-3.2539,-3.2521,-3.2418,-3.2412,-3.2467,-3.2399,-3.2386,-3.2364,-3.2298,-3.2288,-3.2325,-3.2323,-3.2233,-3.2224,-3.2216,-3.2189,-3.2179,-3.2175,-3.2173,-3.2093,-3.2093,-3.2093,0,0,0,0,0,0,-3.2527,-3.2516,-3.2415,-3.242,-3.2414,-3.2401,-3.239,-3.2353,-3.2298,-3.234,-3.2336,-3.2325,-3.2245,-3.2226,-3.222,-3.2164,-3.2183,-3.218,-3.2177,-3.2176,-3.2093,-3.2093,0,0,0,0,0,0,-3.2522,-3.2512,-3.2421,-3.2417,-3.2412,-3.2342,-3.2368,-3.2294,-3.2303,-3.2343,-3.2302,-3.2302,-3.2248,-3.224,-3.2222,-3.217,-3.2166,-3.2183,-3.2181,-3.2179,-3.2178,0,0,0,0,0,0,0,-3.2517,-3.2589,-3.2454,-3.2414,-3.241,-3.2358,-3.2356,-3.2354,-3.2303,-3.2303,-3.2303,-3.2302,-3.2203,-3.2199,-3.2195,-3.2175,0,0,-3.2183,-3.2182,0,0,0,0,0,0,0,0,-3.2592,-3.259,-3.2454,-3.2452,-3.2451,-3.2357,-3.2356,-3.2355,-3.2303,-3.2303,-3.2303,-3.2302,-3.2202,-3.2199,-3.2196,0,0,0,0,0,0,0,0,0,0,0,0,0,0,0,-3.2454,-3.2453,0,-3.2357,-3.2356,-3.2355,-3.2303,-3.2303,-3.2303,-3.2302,-3.2201,-3.2199,-3.2196,0,0,0,0,0,0,0,0,0,0,0,0,0,0,0,0,0,0,0,0,0,0,0,0,0,0,0,0,0,0,0,0,0,0,0,0,0,0,0,0,0,0,0,0,0,0,0,0,0,0,0,0,0,0,0,0,0,0,0,0,0,0,0,0,0,0,0,0,0]}],[{"header":{"parameterUnit":"kt","parameterCategory":2,"dx":1,"dy":1,"la1":30.253999710083008,"la2":30.299108505249023,"lo1":-89.0895004272461,"lo2":-89.04439544677734,"nx":28,"ny":28,"refTime":"2022-10-10T21:00:00:Z","depth":0,"parameterNumber":2,"parameterNumberName":"V-component_of_WINDS"},"data":[-4.6215,-4.6284,-4.637,-4.6488,-4.6585,-4.6681,-4.6743,-4.6832,-4.6924,-4.7049,-4.7135,-4.7228,-4.7354,-4.7478,-4.7577,-4.7616,-4.7653,-4.7616,-4.7669,-4.7756,-4.7773,-4.779,-4.7781,-4.7622,-4.7622,-4.7569,-4.7568,-4.7568,-4.6277,-4.6374,-4.646,-4.6603,-4.6679,-4.6767,-4.6887,-4.6945,-4.7027,-4.714,-4.723,-4.7346,-4.7448,-4.7589,-4.7702,-4.7737,-4.7785,-4.7762,-4.7762,-4.7781,-4.7876,-4.7865,-4.7721,-4.7721,-4.7721,-4.7721,-4.7721,-4.7721,-4.6415,-4.6451,-4.6588,-4.6683,-4.6777,-4.6872,-4.6922,-4.7035,-4.7121,-4.7248,-4.7333,-4.7427,-4.7557,-4.7734,-4.7813,-4.7891,-4.7932,-4.7933,-4.7935,-4.7933,-4.7922,-4.7994,-4.7913,-4.7914,-4.7914,-4.7915,-4.7915,0,-4.6543,-4.6613,-4.67,-4.6814,-4.6888,-4.6984,-4.7086,-4.7119,-4.7295,-4.7357,-4.7456,-4.7526,-4.7666,-4.7769,-4.7892,-4.7976,-4.8075,-4.8092,-4.8094,-4.8057,-4.8009,-4.804,-4.8195,-4.8094,-4.8096,-4.8097,-4.8098,-4.8099,-4.6691,-4.6721,-4.6904,-4.6955,-4.7032,-4.7109,-4.7174,-4.7326,-4.7387,-4.7535,-4.756,-4.7663,-4.7755,-4.7896,-4.8027,-4.8131,-4.8181,-4.8134,-4.8197,-4.816,-4.8186,-4.8184,-4.819,-4.8119,-4.8116,-4.8114,-4.8113,0,-4.6767,-4.6907,-4.6982,-4.716,-4.7205,-4.7229,-4.7382,-4.7424,-4.7529,-4.7601,-4.7627,-4.7791,-4.7883,-4.8024,-4.8156,-4.8226,-4.8273,-4.8315,-4.8231,-4.8249,-4.8224,-4.8225,-4.8112,-4.8107,-4.8269,-4.8267,-4.8266,0,-4.695,-4.6983,-4.7191,-4.7226,-4.727,-4.7422,-4.746,-4.7555,-4.7668,-4.7726,-4.7859,-4.7911,-4.8081,-4.8153,-4.8257,-4.8319,-4.8342,-4.8401,-4.8429,-4.8391,-4.8384,-4.8427,-4.8436,-4.8484,-4.8485,-4.8485,-4.8486,0,-4.7058,-4.7205,-4.7264,-4.732,-4.7512,-4.7535,-4.7616,-4.7744,-4.7804,-4.7904,-4.7946,-4.805,-4.8108,-4.8188,-4.832,-4.8358,-4.8397,-4.8477,-4.8458,-4.8455,-4.8461,-4.8459,-4.8321,-4.8486,-4.8486,-4.8486,-4.8487,0,-4.7228,-4.7327,-4.7388,-4.7553,-4.7585,-4.7622,-4.7738,-4.7801,-4.7926,-4.7994,-4.8074,-4.8179,-4.8241,-4.8312,-4.8401,-4.8414,-4.8464,-4.8525,-4.8526,-4.8543,-4.8618,-4.8526,-4.8377,-4.8369,-4.8556,-4.8556,-4.8557,0,-4.7315,-4.7414,-4.7546,-4.76,-4.7666,-4.7814,-4.7858,-4.7963,-4.8058,-4.8128,-4.8233,-4.8309,-4.839,-4.8434,-4.8459,-4.8571,-4.8553,-4.8576,-4.8678,-4.868,-4.8645,-4.851,-4.8454,-4.8394,-4.8566,-4.8565,-4.8564,0,-4.74,-4.7632,-4.7632,-4.7704,-4.7867,-4.7921,-4.797,-4.808,-4.812,-4.8221,-4.8269,-4.8376,-4.8445,-4.8513,-4.8609,-4.8628,-4.857,-4.8698,-4.8703,-4.8673,-4.858,-4.8529,-4.8518,-4.863,-4.8629,-4.8629,-4.8571,0,-4.7634,-4.7699,-4.7704,-4.7853,-4.7916,-4.7956,-4.8106,-4.8153,-4.8241,-4.834,-4.8408,-4.8528,-4.8638,-4.866,-4.8744,-4.8742,-4.8765,-4.8834,-4.8914,-4.8822,-4.8808,-4.8801,-4.8925,-4.8928,-4.8931,-4.8933,0,0,-4.7684,-4.7781,-4.7923,-4.7976,-4.8039,-4.8191,-4.8221,-4.8299,-4.8451,-4.8492,-4.8537,-4.8707,-4.8801,-4.8869,-4.8852,-4.8894,-4.8908,-4.8933,-4.8864,-4.8855,-4.8848,-4.883,-4.882,-4.8938,-4.8939,-4.8939,-4.894,0,-4.7801,-4.7895,-4.7922,-4.801,-4.8145,-4.8249,-4.8255,-4.8415,-4.8479,-4.8545,-4.867,-4.8728,-4.8855,-4.8942,-4.9002,-4.8929,-4.9019,-4.895,-4.8863,-4.8886,-4.8873,-4.8864,-4.8842,-4.8832,-4.8947,-4.8946,-4.8946,0,-4.7915,-4.8034,-4.8061,-4.8209,-4.8298,-4.8358,-4.848,-4.8537,-4.8584,-4.8746,-4.8809,-4.8894,-4.902,-4.9062,-4.9086,-4.9128,-4.9112,-4.9141,-4.9128,-4.9134,-4.9163,-4.9149,-4.9135,-4.9307,-4.9308,-4.9309,0,0,-4.7995,-4.8056,-4.823,-4.8245,-4.8292,-4.8446,-4.8492,-4.8584,-4.8694,-4.8737,-4.885,-4.8952,-4.903,-4.9077,-4.9156,-4.918,-4.922,-4.9179,-4.9162,-4.9148,-4.9146,-4.9171,-4.9156,-4.9311,-4.9311,-4.9311,0,0,-4.8034,-4.8237,-4.8306,-4.8342,-4.8443,-4.8614,-4.8618,-4.8707,-4.8793,-4.8805,-4.8962,-4.8996,-4.9037,-4.9115,-4.9132,-4.9188,-4.9263,-4.9262,-4.9135,-4.9116,-4.9099,-4.9081,-4.9272,0,0,0,0,0,-4.823,-4.8212,-4.8273,-4.8301,-4.8486,-4.858,-4.8605,-4.8735,-4.8788,-4.8788,-4.8897,-4.8989,-4.9158,-4.9177,-4.9202,-4.9182,-4.9343,-4.9338,-4.9332,-4.9175,-4.9153,-4.9135,0,0,0,0,0,0,-4.8242,-4.8276,-4.8274,-4.8441,-4.8485,-4.8582,-4.87,-4.8736,-4.8791,-4.8808,-4.8966,-4.8994,-4.9106,-4.9173,-4.9193,-4.9172,-4.9266,-4.9341,-4.9336,-4.9332,-4.9168,-4.915,-4.9134,0,0,0,0,0,-4.8253,-4.828,-4.8542,-4.8443,-4.848,-4.8649,-4.8702,-4.8733,-4.8778,-4.8944,-4.8976,-4.8871,-4.9102,-4.9128,-4.9186,-4.9159,-4.9252,-4.9259,-4.9338,-4.9334,-4.9331,-4.9159,0,0,0,0,0,0,-4.8261,-4.8309,-4.8552,-4.8568,-4.8459,-4.8647,-4.8681,-4.8729,-4.8913,-4.8944,-4.8857,-4.8868,-4.9099,-4.912,-4.9139,-4.9148,-4.9241,-4.9249,-4.9253,-4.9335,-4.9332,-4.9329,0,0,0,0,0,0,-4.8295,-4.8321,-4.8561,-4.8574,-4.8593,-4.8643,-4.8673,-4.874,-4.8913,-4.8816,-4.8831,-4.886,-4.9069,-4.9114,-4.9129,-4.9228,-4.9233,-4.924,-4.9245,-4.9248,-4.9333,-4.933,0,0,0,0,0,0,-4.8308,-4.8331,-4.8571,-4.8585,-4.8602,-4.8794,-4.8704,-4.8885,-4.8925,-4.8805,-4.8933,-4.8936,-4.906,-4.9079,-4.9122,-4.9212,-4.9224,-4.9233,-4.9238,-4.9241,-4.9244,0,0,0,0,0,0,0,-4.8319,-4.8136,-4.8456,-4.8594,-4.8609,-4.8718,-4.8723,-4.8727,-4.8926,-4.8929,-4.8932,-4.8934,-4.9193,-4.9201,-4.9208,-4.92,0,0,-4.9233,-4.9236,0,0,0,0,0,0,0,0,-4.8129,-4.8134,-4.8457,-4.846,-4.8463,-4.8719,-4.8723,-4.8726,-4.8927,-4.8929,-4.8931,-4.8933,-4.9195,-4.9201,-4.9208,0,0,0,0,0,0,0,0,0,0,0,0,0,0,0,-4.8457,-4.846,0,-4.8719,-4.8722,-4.8725,-4.8927,-4.8929,-4.8931,-4.8932,-4.9197,-4.9202,-4.9207,0,0,0,0,0,0,0,0,0,0,0,0,0,0,0,0,0,0,0,0,0,0,0,0,0,0,0,0,0,0,0,0,0,0,0,0,0,0,0,0,0,0,0,0,0,0,0,0,0,0,0,0,0,0,0,0,0,0,0,0,0,0,0,0,0,0,0,0,0]}]]]